"Pseudo-MPEC" for A10eQDk

Created 2019 Jul 24 23:07:03 UT using Find_Orb

Click here for an explanation of pseudo-MPECs

 
 Astrometry: 
     A10eQDk  C2019 07 10.45970220 01 09.01 -24 02 53.4    ~7ALb 19.24oVNEOCPT05
     A10eQDk  C2019 07 10.46637720 01 09.12 -24 03 02.6    ~7ALb 19.10oVNEOCPT05
     A10eQDk  C2019 07 10.47478220 01 09.35 -24 03 12.3    ~7ALb 19.13oVNEOCPT05
     A10eQDk  C2019 07 10.48829920 01 09.54 -24 03 29.1    ~7ALb 19.23oVNEOCPT05
     A10eQDk IC2019 07 101H+Qx)kc1Astrometry6:%8^B.FH/7D@448p$Bredacted;;58=uL01
     A10eQDk IC2019 07 10i;$4$iJIbclickWkpW9ZoU$iC8(m$/+L`h+NFNyhereew;vforifL01
     A10eQDk IC2019 07 10-\FlJFexplanationiN]2,F=LDn)k;WDZ/9VRY=4%@Z)@Jyn-1T-L01

Station data:
(L01) Višnjan Observatory, Tičan  (N45.290900 E13.749300)  Croatia.
   Observers K. Korlević, E. Pettarin. Measurer E. Pettarin. 1.0-m f/2.9
   reflector + CCD.
(T05) ATLAS-HKO, Haleakala  (N20.707573 W156.257010)  US/Hawaii.  Observers
   L. Denneau, A. Heinze, H. Weiland, J. Tonry, H. Flewelling, A.
   Fitzsimmons, D. Young, B. Stalder. Measurers L. Denneau, A. Heinze, J.
   Tonry. 0.5-m f/2.0 Schmidt + CCD.

Orbital elements:  A10eQDk
   Perihelion 2019 Jun 28.469511 +/- 34 TT = 11:16:05 (JD 2458662.969511)
Epoch 2019 Jul 11.0 TT = JDT 2458675.5   Earth MOID: 0.3904   Ma: 0.0061
M   3.17062221 +/- 9                (J2000 ecliptic)          AutoNEOCP
n   0.25303259 +/- 0.122            Peri.  178.49603 +/- 26
a   2.47562617 +/- 0.793            Node   103.54686 +/- 1.1
e   0.4316249 +/- 0.139             Incl.    8.07900 +/- 2.1
P   3.90                   H 20.5   G  0.15   U 11.3  SR
q 1.40708426 +/- 0.125    Q 3.54416807 +/- 1.82
From 7 observations 2019 July 10 (12.5 hr); mean residual 0".47
Residuals in arcseconds: 
190710 T05  .34-  .84+    190710 T05  .08+  .59-    190710 L01  .11+  .47-    
190710 T05  .43-  .34-    190710 L01  .26+  .77+    
190710 T05  .71+  .05+    190710 L01  .39-  .27-    

Ephemerides (geocentric):
Date (UTC) HH   RA              Dec         delta   r     elong  mag " sig PA
---- -- -- --  -------------   -----------  ------ ------ -----  --- ---- ---
2019 07 24 23  20 06 27.469   -28 33 15.98  .41715 1.4294 171.1 19.9 1652  74
2019 07 25 00  20 06 28.287   -28 33 57.08  .41725 1.4295 171.0 19.9 1661  74
2019 07 25 01  20 06 29.105   -28 34 38.15  .41734 1.4295 171.0 19.9 1670  74
2019 07 25 02  20 06 29.923   -28 35 19.17  .41744 1.4296 171.0 19.9 1680  74
2019 07 25 03  20 06 30.741   -28 36 00.15  .41753 1.4297 171.0 19.9 1689  74
2019 07 25 04  20 06 31.559   -28 36 41.08  .41763 1.4297 170.9 19.9 1698  74
2019 07 25 05  20 06 32.378   -28 37 21.97  .41773 1.4298 170.9 19.9 1708  74
2019 07 25 06  20 06 33.196   -28 38 02.82  .41782 1.4299 170.9 19.9 1717  74
2019 07 25 07  20 06 34.015   -28 38 43.62  .41792 1.4300 170.8 19.9 1726  74
2019 07 25 08  20 06 34.834   -28 39 24.39  .41802 1.4300 170.8 19.9 1736  74
2019 07 25 09  20 06 35.653   -28 40 05.10  .41812 1.4301 170.8 19.9 1745  74
2019 07 25 10  20 06 36.472   -28 40 45.78  .41821 1.4302 170.8 19.9 1754  74
2019 07 25 11  20 06 37.292   -28 41 26.41  .41831 1.4302 170.7 19.9 1764  74
2019 07 25 12  20 06 38.111   -28 42 06.99  .41841 1.4303 170.7 19.9 1773  74
2019 07 25 13  20 06 38.931   -28 42 47.54  .41851 1.4304 170.7 19.9 1783  74
2019 07 25 14  20 06 39.751   -28 43 28.04  .41861 1.4304 170.6 19.9 1792  74
2019 07 25 15  20 06 40.571   -28 44 08.49  .41871 1.4305 170.6 19.9 1802  74
2019 07 25 16  20 06 41.392   -28 44 48.90  .41881 1.4306 170.6 19.9 1811  74
2019 07 25 17  20 06 42.213   -28 45 29.27  .41891 1.4307 170.6 19.9 1821  74
2019 07 25 18  20 06 43.033   -28 46 09.59  .41901 1.4307 170.5 19.9 1830  74
2019 07 25 19  20 06 43.855   -28 46 49.87  .41911 1.4308 170.5 19.9 1840  74
2019 07 25 20  20 06 44.676   -28 47 30.10  .41921 1.4309 170.5 19.9 1849  74
2019 07 25 21  20 06 45.498   -28 48 10.29  .41931 1.4309 170.4 19.9 1859  74
2019 07 25 22  20 06 46.320   -28 48 50.44  .41941 1.4310 170.4 19.9 1869  74
2019 07 25 23  20 06 47.142   -28 49 30.54  .41951 1.4311 170.4 19.9 1878  74
2019 07 26 00  20 06 47.964   -28 50 10.60  .41961 1.4312 170.4 19.9 1888  74
2019 07 26 01  20 06 48.787   -28 50 50.61  .41971 1.4312 170.3 19.9 1898  74
2019 07 26 02  20 06 49.610   -28 51 30.57  .41981 1.4313 170.3 19.9 1907  74
2019 07 26 03  20 06 50.434   -28 52 10.50  .41992 1.4314 170.3 19.9 1917  74
2019 07 26 04  20 06 51.257   -28 52 50.37  .42002 1.4314 170.2 19.9 1927  74
2019 07 26 05  20 06 52.081   -28 53 30.20  .42012 1.4315 170.2 19.9 1937  74
2019 07 26 06  20 06 52.905   -28 54 09.99  .42023 1.4316 170.2 19.9 1946  74
2019 07 26 07  20 06 53.730   -28 54 49.73  .42033 1.4317 170.1 19.9 1956  74
2019 07 26 08  20 06 54.555   -28 55 29.43  .42043 1.4317 170.1 19.9 1966  74
2019 07 26 09  20 06 55.380   -28 56 09.08  .42054 1.4318 170.1 19.9 1976  74
2019 07 26 10  20 06 56.206   -28 56 48.68  .42064 1.4319 170.1 19.9 1986  74
2019 07 26 11  20 06 57.032   -28 57 28.24  .42074 1.4320 170.0 19.9 1996  74
2019 07 26 12  20 06 57.858   -28 58 07.76  .42085 1.4320 170.0 19.9 2006  74
2019 07 26 13  20 06 58.684   -28 58 47.23  .42095 1.4321 170.0 19.9 2016  74
2019 07 26 14  20 06 59.511   -28 59 26.65  .42106 1.4322 169.9 19.9 2026  74
2019 07 26 15  20 07 00.339   -29 00 06.03  .42116 1.4322 169.9 19.9 2035  74
2019 07 26 16  20 07 01.166   -29 00 45.36  .42127 1.4323 169.9 19.9 2045  74
2019 07 26 17  20 07 01.995   -29 01 24.64  .42138 1.4324 169.8 20.0 2055  74
2019 07 26 18  20 07 02.823   -29 02 03.88  .42148 1.4325 169.8 20.0 2066  74
2019 07 26 19  20 07 03.652   -29 02 43.08  .42159 1.4325 169.8 20.0 2076  74
2019 07 26 20  20 07 04.481   -29 03 22.22  .42170 1.4326 169.8 20.0 2086  74
2019 07 26 21  20 07 05.311   -29 04 01.33  .42180 1.4327 169.7 20.0 2096  74
2019 07 26 22  20 07 06.141   -29 04 40.38  .42191 1.4328 169.7 20.0 2106  74